Total_Precipitation_Accumulation
1.75 1.76 2.72 4.03 4.84 3.86 3.34 3.16 2.71 2.38 1.81 1.43 1.19 1.25 1.71 2.15 2.44 2.92 3.02 3.05 2.16 2.01 2.35 3.04 3.87 3.72 3.44 3.30 3.30 3.35 3.51 3.26 3.01 2.95 2.84 2.73 2.71 2.65 2.55 2.60 2.64 2.76 2.65 2.51 2.70 3.04 3.07 3.05 3.08
1.34 2.15 3.42 4.64 4.31 3.33 3.37 3.10 2.69 2.22 1.59 1.18 0.95 0.94 1.09 1.10 1.09 1.79 3.11 3.26 2.07 1.76 2.02 2.44 3.45 3.35 3.24 3.23 3.22 3.42 3.19 2.81 2.67 2.67 2.60 2.55 2.64 2.79 2.86 2.86 2.87 2.94 2.73 2.49 2.53 2.96 3.03 2.96 2.80
1.80 2.90 4.08 4.40 3.37 3.13 3.40 3.10 2.51 1.64 1.16 1.02 0.94 0.85 1.01 1.37 1.45 2.12 2.95 2.46 1.89 1.74 2.04 2.83 3.46 3.23 3.18 3.13 3.14 3.14 2.89 2.71 2.55 2.47 2.46 2.54 2.77 2.92 2.95 3.03 2.98 2.98 2.79 2.62 2.66 3.00 2.85 2.75 2.63
2.34 3.44 3.87 3.55 2.94 2.64 2.63 2.57 2.12 1.55 1.16 0.82 0.83 0.99 1.05 1.54 1.77 2.09 2.21 1.80 1.68 1.77 2.02 2.72 3.14 2.91 2.88 3.02 3.05 2.80 2.80 2.84 2.57 2.39 2.45 2.68 3.07 3.12 3.18 3.18 2.89 2.88 2.77 2.76 2.76 2.93 2.85 2.71 2.63
2.77 3.50 3.57 3.29 2.91 2.59 2.17 1.98 1.84 1.69 1.35 0.97 0.92 1.19 1.59 2.17 2.00 1.86 1.82 1.60 1.47 1.50 1.70 2.29 2.87 2.67 2.68 2.82 2.75 2.58 2.62 2.73 2.62 2.42 2.60 2.87 3.25 3.35 3.30 3.05 2.76 2.77 2.78 2.88 2.97 2.97 2.99 2.85 2.65
3.27 3.23 3.39 3.33 3.12 2.79 2.32 1.71 1.54 1.54 1.24 1.03 1.03 1.28 2.08 2.58 2.32 2.13 1.80 1.81 1.62 1.47 1.47 1.74 2.34 2.55 2.60 2.60 2.62 2.52 2.47 2.54 2.49 2.41 2.49 2.71 3.21 3.33 3.25 3.05 2.82 2.68 2.74 2.96 3.23 3.13 2.97 2.75 2.64
3.18 3.07 3.10 2.75 2.86 3.14 2.43 1.51 1.54 1.52 1.40 1.18 0.94 1.27 1.96 2.37 2.14 2.00 1.80 1.81 1.86 1.78 1.63 1.51 1.64 2.01 2.41 2.46 2.51 2.50 2.41 2.32 2.20 2.31 2.42 2.82 3.34 3.19 3.03 2.94 2.83 2.78 2.86 2.94 3.12 3.04 2.90 2.81 2.77
2.57 2.68 2.63 2.62 2.87 3.09 2.20 1.35 1.24 1.43 1.37 0.94 0.99 1.39 1.74 1.78 1.66 1.65 1.73 1.89 1.93 1.90 1.72 1.45 1.37 1.58 1.96 2.01 2.21 2.40 2.35 2.23 2.09 2.17 2.35 2.68 3.22 3.05 2.85 2.71 2.93 3.19 3.33 3.39 3.38 3.15 2.94 2.88 2.73
2.15 2.70 2.99 3.00 2.93 2.62 1.81 1.44 1.16 1.03 1.02 0.92 0.94 1.07 1.21 1.12 1.23 1.41 1.49 1.58 1.77 1.74 1.60 1.39 1.32 1.52 1.74 1.78 1.94 2.27 2.20 2.04 1.87 1.86 2.12 2.29 2.59 2.59 2.65 2.77 3.12 3.15 3.17 3.25 3.33 3.24 2.96 2.64 2.53
2.22 2.68 2.70 2.16 1.76 1.72 1.50 1.32 1.16 1.25 1.32 1.12 1.08 1.09 1.13 1.15 1.21 1.25 1.28 1.33 1.40 1.41 1.30 1.22 1.19 1.33 1.50 1.51 1.92 2.21 1.93 1.82 1.61 1.65 1.73 1.92 2.29 2.60 2.36 2.70 3.21 3.13 3.04 2.95 3.07 3.04 2.60 2.07 1.78
1.80 2.20 1.85 1.59 1.30 1.11 1.17 1.17 0.94 1.15 1.39 1.19 1.14 1.09 1.13 1.24 1.24 1.25 1.24 1.15 1.12 1.10 1.04 0.96 0.88 0.89 1.01 1.28 1.65 1.97 2.05 2.03 2.03 1.87 1.76 1.84 1.76 1.91 1.85 1.93 2.19 2.26 2.27 2.18 2.30 2.39 2.07 1.76 1.69
1.70 1.64 1.47 1.46 1.08 1.04 1.04 1.01 0.99 1.04 1.15 1.02 1.07 0.98 0.98 1.10 1.13 1.12 1.17 1.10 1.01 0.99 0.96 0.87 0.80 0.75 0.77 0.90 1.14 1.39 1.54 1.62 1.71 1.63 1.49 1.63 1.60 1.65 1.73 1.72 1.64 1.60 1.68 1.83 1.88 2.02 2.00 1.78 1.70
1.80 1.73 1.41 1.17 1.04 0.99 0.91 0.91 0.95 1.05 0.98 0.87 0.96 1.04 1.08 1.08 1.10 1.15 1.22 1.24 1.09 1.09 1.06 0.96 0.84 0.80 0.82 0.90 0.97 1.05 1.24 1.31 1.34 1.42 1.39 1.44 1.59 1.65 1.64 1.50 1.48 1.37 1.43 1.56 1.71 1.79 1.85 1.90 1.86
1.61 1.58 1.60 1.42 1.20 1.09 1.06 0.93 0.85 1.08 1.03 0.96 1.04 1.14 1.11 1.13 1.04 1.03 1.09 1.20 1.21 1.19 1.14 1.10 0.98 0.95 0.92 0.91 0.93 0.98 1.06 1.11 1.13 1.14 1.14 1.29 1.51 1.54 1.59 1.53 1.55 1.50 1.48 1.58 1.57 1.51 1.68 1.86 1.80
1.49 1.75 1.79 1.63 1.34 1.18 1.21 1.35 1.06 1.02 1.08 1.09 1.20 1.14 1.06 1.10 1.05 1.00 0.98 1.04 1.12 1.14 1.10 1.12 1.12 1.11 1.10 1.07 0.98 0.94 1.07 1.21 1.16 1.09 0.99 1.03 1.24 1.34 1.44 1.49 1.47 1.47 1.56 1.60 1.65 1.49 1.54 1.57 1.60
1.88 2.28 2.45 1.80 1.50 1.26 1.46 1.73 1.24 1.13 1.16 1.13 1.16 1.12 1.05 1.03 0.99 0.96 0.97 0.95 0.95 0.97 0.99 1.07 1.06 1.08 1.12 1.10 1.09 1.13 1.15 1.22 1.15 1.12 1.04 1.00 1.09 1.22 1.39 1.44 1.39 1.37 1.55 1.69 1.78 1.68 1.65 1.62 1.63
2.19 2.29 2.17 1.81 1.45 1.32 1.41 1.45 1.19 1.15 1.18 1.03 1.03 1.01 0.96 0.90 0.88 0.84 0.88 0.92 0.92 0.91 0.94 0.95 0.98 0.95 1.01 1.06 1.07 1.20 1.25 1.27 1.22 1.19 1.11 1.10 1.19 1.31 1.49 1.60 1.61 1.57 1.58 1.64 1.63 1.72 1.74 1.72 1.73
1.84 1.73 1.62 1.59 1.32 1.22 1.25 1.12 1.00 1.03 1.04 0.94 0.84 0.79 0.78 0.78 0.75 0.73 0.77 0.84 0.86 0.89 0.92 0.89 0.90 0.90 0.91 1.02 1.12 1.30 1.43 1.43 1.42 1.31 1.24 1.29 1.44 1.60 1.77 1.78 1.87 1.92 1.82 1.83 1.81 1.87 1.83 1.74 1.79
1.22 1.34 1.38 1.30 1.01 1.02 1.05 0.94 0.93 0.92 0.92 0.84 0.75 0.64 0.63 0.65 0.65 0.65 0.70 0.80 0.83 0.84 0.88 0.88 0.85 0.90 0.92 0.95 1.07 1.30 1.57 1.68 1.81 1.70 1.46 1.39 1.53 1.84 2.14 2.13 2.20 2.29 2.21 2.17 2.15 2.38 2.33 2.04 1.85
1.17 1.39 1.37 1.25 0.89 0.84 0.89 0.81 0.74 0.74 0.78 0.68 0.65 0.61 0.56 0.58 0.56 0.57 0.60 0.67 0.72 0.71 0.77 0.83 0.82 0.87 0.89 0.93 1.09 1.25 1.42 1.43 1.58 1.69 1.62 1.52 1.52 1.71 1.90 2.22 2.39 2.38 2.52 2.60 2.56 2.92 3.06 2.53 2.10
1.13 1.17 1.14 1.11 0.92 0.83 0.82 0.89 0.69 0.61 0.63 0.57 0.51 0.53 0.50 0.53 0.56 0.55 0.54 0.60 0.63 0.61 0.60 0.66 0.73 0.78 0.91 1.04 1.23 1.43 1.66 1.73 1.73 1.61 1.70 1.69 1.58 1.66 1.80 1.98 2.18 2.29 2.44 2.61 2.69 3.00 3.53 3.29 2.60
1.06 0.78 0.72 0.80 1.06 1.14 0.93 1.17 0.80 0.65 0.68 0.59 0.49 0.45 0.44 0.48 0.52 0.62 0.60 0.61 0.59 0.59 0.61 0.66 0.78 0.90 1.09 1.29 1.48 1.65 1.84 1.89 1.77 1.75 1.77 1.65 1.55 1.53 1.66 1.81 1.96 2.15 2.23 2.42 2.49 2.59 3.17 3.58 3.24
0.72 0.62 0.61 0.71 0.97 0.97 0.75 0.90 0.78 0.64 0.76 0.68 0.55 0.47 0.43 0.44 0.49 0.55 0.58 0.63 0.67 0.71 0.81 0.88 1.04 1.23 1.47 1.69 1.92 2.16 2.11 2.01 1.92 1.83 1.79 1.72 1.69 1.64 1.64 1.83 1.90 1.93 2.05 2.23 2.55 2.81 3.08 3.34 3.37
0.53 0.65 0.75 0.82 1.06 1.07 0.65 0.75 0.81 0.62 0.64 0.68 0.61 0.51 0.43 0.40 0.49 0.63 0.74 0.87 0.99 1.04 1.23 1.46 1.69 1.83 1.92 2.03 2.15 2.24 2.17 2.16 2.12 1.92 1.80 1.77 1.79 1.83 1.82 1.85 1.87 1.85 1.90 2.07 2.36 2.69 2.92 3.23 3.46
0.59 1.00 1.44 1.47 1.42 1.01 0.50 0.72 0.81 0.58 0.49 0.53 0.55 0.45 0.39 0.42 0.54 0.73 0.94 1.12 1.28 1.47 1.66 1.81 1.96 2.09 2.08 2.07 2.10 2.12 2.09 2.05 2.04 2.00 1.91 1.85 1.80 1.80 1.81 1.85 1.94 2.01 2.06 2.18 2.40 2.61 2.58 2.78 3.22
0.62 0.90 1.46 1.62 1.31 0.89 0.63 0.93 0.87 0.62 0.48 0.42 0.36 0.31 0.42 0.58 0.72 0.85 0.96 1.13 1.35 1.57 1.67 1.71 1.81 1.91 1.90 1.89 1.89 1.84 1.88 1.88 1.82 1.75 1.76 1.84 1.91 1.86 1.73 1.72 1.79 1.88 2.05 2.11 2.20 2.28 2.26 2.40 2.66
0.63 0.67 0.73 1.04 0.86 0.85 0.85 0.98 0.88 0.59 0.50 0.43 0.38 0.40 0.55 0.79 0.99 1.16 1.30 1.46 1.54 1.63 1.73 1.65 1.70 1.78 1.78 1.72 1.69 1.71 1.67 1.71 1.70 1.61 1.64 1.66 1.69 1.61 1.46 1.42 1.47 1.52 1.57 1.68 1.85 1.96 2.08 2.19 2.32
0.51 0.65 0.86 1.23 1.36 1.34 1.17 1.12 1.04 0.79 0.65 0.66 0.72 0.81 0.85 0.96 1.24 1.55 1.85 2.03 1.89 1.68 1.63 1.63 1.60 1.67 1.80 1.82 1.75 1.70 1.73 1.72 1.66 1.65 1.57 1.54 1.61 1.55 1.46 1.36 1.28 1.27 1.22 1.24 1.44 1.64 1.77 1.89 2.06
0.55 0.73 0.89 1.13 1.24 1.57 1.75 1.62 1.22 1.20 1.17 1.20 1.26 1.29 1.30 1.39 1.38 1.58 1.82 2.03 1.99 1.70 1.46 1.49 1.58 1.67 1.75 1.75 1.77 1.73 1.67 1.54 1.50 1.52 1.49 1.44 1.46 1.52 1.52 1.42 1.33 1.41 1.42 1.36 1.42 1.44 1.48 1.56 1.70
0.65 0.82 1.02 1.39 1.28 1.25 1.59 1.67 1.25 1.22 1.25 1.32 1.45 1.49 1.49 1.41 1.31 1.33 1.41 1.51 1.63 1.53 1.34 1.29 1.43 1.56 1.59 1.59 1.64 1.65 1.53 1.42 1.39 1.38 1.31 1.17 1.09 1.09 1.21 1.34 1.27 1.26 1.29 1.34 1.43 1.42 1.44 1.48 1.56